Location: Eaton Estates
(41.3089°N, 82.0057°W)
Time: 17:04:04
(UTC+00:00)

Meteor 2-5 Rocket - Pass Details

Date: 17 June 2021
Orbit: 833 x 911 km, 81.2° (Epoch: 01 August)

Event Time Altitude Azimuth Distance (km) Brightness Sun altitude
Exits shadow 03:31:46 37° 165° (SSE) 1,271 4.1 -19.8°
Maximum altitude 03:33:54 67° 96° (E) 908 3.7 -20.0°
Drops below altitude 10° 03:39:26 10° 15° (NNE) 2,473 6.8 -20.5°
Sets 03:41:53 0° 13° (NNE) 3,421 7.7 -20.7°
